QPF
0.00 0.00 0.00 0.00 0.00 0.00 0.00 0.00 0.00 0.00 0.00 0.00 0.00 0.00 0.00 0.00 0.00 0.00 0.00 0.00 0.00 0.00 0.00 0.00 0.00 0.00 0.00 0.00 0.01 0.01 0.01 0.00 0.00 0.01 0.00 0.00 0.01 0.01 0.02 0.04 0.07 0.04 0.01
0.00 0.00 0.00 0.00 0.00 0.00 0.00 0.00 0.00 0.00 0.00 0.00 0.00 0.00 0.00 0.00 0.00 0.00 0.00 0.00 0.00 0.00 0.00 0.00 0.00 0.00 0.00 0.00 0.01 0.01 0.00 0.00 0.01 0.00 0.00 0.00 0.00 0.01 0.02 0.05 0.10 0.04 0.01
0.00 0.00 0.00 0.00 0.00 0.00 0.00 0.00 0.00 0.00 0.00 0.00 0.00 0.00 0.00 0.00 0.00 0.00 0.00 0.00 0.00 0.00 0.00 0.00 0.00 0.00 0.01 0.01 0.00 0.00 0.00 0.00 0.00 0.00 0.04 0.03 0.00 0.00 0.02 0.04 0.05 0.02 0.02
0.00 0.00 0.00 0.00 0.00 0.00 0.00 0.00 0.00 0.00 0.00 0.00 0.00 0.00 0.00 0.00 0.00 0.00 0.00 0.00 0.00 0.00 0.00 0.00 0.00 0.00 0.00 0.00 0.00 0.00 0.00 0.00 0.00 0.02 0.11 0.06 0.01 0.00 0.01 0.02 0.01 0.01 0.02
0.00 0.00 0.00 0.00 0.00 0.00 0.00 0.00 0.00 0.00 0.00 0.00 0.00 0.00 0.00 0.00 0.00 0.00 0.00 0.01 0.00 0.00 0.00 0.00 0.00 0.00 0.00 0.00 0.00 0.00 0.00 0.00 0.01 0.03 0.06 0.05 0.06 0.02 0.01 0.01 0.01 0.02 0.02
0.00 0.00 0.00 0.00 0.00 0.00 0.00 0.00 0.00 0.00 0.00 0.00 0.00 0.00 0.00 0.00 0.00 0.00 0.00 0.01 0.01 0.01 0.00 0.00 0.00 0.00 0.00 0.00 0.00 0.00 0.00 0.00 0.01 0.02 0.02 0.03 0.05 0.02 0.00 0.00 0.01 0.02 0.02
0.00 0.00 0.00 0.00 0.00 0.00 0.00 0.00 0.00 0.00 0.00 0.00 0.00 0.00 0.00 0.00 0.00 0.00 0.01 0.01 0.01 0.01 0.01 0.00 0.00 0.00 0.00 0.00 0.00 0.00 0.00 0.00 0.01 0.01 0.01 0.04 0.06 0.01 0.00 0.00 0.01 0.02 0.02
0.00 0.00 0.00 0.00 0.00 0.00 0.00 0.00 0.00 0.00 0.00 0.00 0.00 0.00 0.00 0.00 0.00 0.00 0.01 0.01 0.01 0.01 0.01 0.01 0.01 0.00 0.00 0.00 0.00 0.00 0.00 0.00 0.01 0.01 0.00 0.02 0.02 0.00 0.00 0.00 0.01 0.01 0.01
0.00 0.00 0.00 0.00 0.00 0.00 0.00 0.00 0.00 0.00 0.00 0.00 0.00 0.00 0.00 0.00 0.00 0.00 0.01 0.01 0.01 0.01 0.01 0.01 0.01 0.01 0.01 0.00 0.00 0.00 0.00 0.00 0.01 0.01 0.01 0.01 0.00 0.00 0.00 0.00 0.00 0.01 0.01
0.00 0.00 0.00 0.00 0.00 0.00 0.00 0.00 0.00 0.00 0.00 0.00 0.00 0.00 0.00 0.00 0.00 0.00 0.00 0.00 0.00 0.01 0.01 0.02 0.02 0.02 0.02 0.01 0.01 0.00 0.00 0.00 0.00 0.00 0.00 0.00 0.00 0.00 0.00 0.00 0.00 0.00 0.01
0.00 0.00 0.00 0.00 0.00 0.00 0.00 0.00 0.00 0.00 0.00 0.00 0.00 0.00 0.00 0.00 0.00 0.00 0.00 0.01 0.01 0.01 0.01 0.01 0.03 0.04 0.04 0.03 0.02 0.02 0.01 0.00 0.00 0.00 0.01 0.01 0.01 0.01 0.00 0.01 0.01 0.01 0.01
0.00 0.00 0.00 0.00 0.00 0.00 0.00 0.00 0.00 0.00 0.01 0.01 0.01 0.02 0.01 0.02 0.01 0.00 0.01 0.02 0.02 0.02 0.02 0.02 0.03 0.04 0.03 0.04 0.07 0.10 0.03 0.01 0.02 0.02 0.03 0.04 0.02 0.01 0.01 0.01 0.01 0.02 0.02
0.00 0.00 0.00 0.00 0.00 0.00 0.00 0.01 0.02 0.02 0.04 0.05 0.04 0.07 0.06 0.04 0.02 0.01 0.03 0.06 0.06 0.05 0.05 0.06 0.07 0.04 0.06 0.09 0.16 0.15 0.06 0.03 0.02 0.02 0.04 0.07 0.04 0.02 0.01 0.01 0.01 0.03 0.04
0.01 0.00 0.00 0.00 0.01 0.01 0.02 0.04 0.04 0.04 0.04 0.05 0.07 0.11 0.11 0.10 0.06 0.05 0.07 0.09 0.11 0.11 0.12 0.14 0.15 0.11 0.14 0.17 0.17 0.14 0.08 0.06 0.03 0.04 0.07 0.07 0.05 0.04 0.03 0.01 0.01 0.02 0.03
0.03 0.01 0.00 0.01 0.02 0.03 0.05 0.07 0.06 0.06 0.07 0.10 0.14 0.18 0.17 0.15 0.12 0.11 0.10 0.11 0.11 0.14 0.15 0.17 0.18 0.22 0.24 0.22 0.17 0.14 0.11 0.09 0.07 0.08 0.13 0.14 0.07 0.05 0.05 0.03 0.02 0.01 0.02
0.05 0.02 0.02 0.03 0.04 0.05 0.06 0.08 0.09 0.09 0.10 0.10 0.12 0.13 0.15 0.17 0.18 0.17 0.16 0.16 0.17 0.17 0.17 0.18 0.20 0.27 0.26 0.23 0.16 0.13 0.14 0.11 0.11 0.12 0.16 0.23 0.16 0.08 0.05 0.04 0.04 0.03 0.03
0.04 0.04 0.05 0.06 0.08 0.09 0.11 0.11 0.12 0.11 0.10 0.12 0.13 0.13 0.12 0.14 0.19 0.20 0.19 0.19 0.20 0.20 0.18 0.18 0.21 0.22 0.19 0.18 0.15 0.14 0.14 0.15 0.14 0.17 0.21 0.26 0.19 0.15 0.08 0.05 0.06 0.06 0.05
0.04 0.08 0.10 0.09 0.10 0.14 0.17 0.18 0.18 0.17 0.17 0.17 0.17 0.18 0.17 0.17 0.21 0.23 0.22 0.18 0.19 0.21 0.23 0.24 0.21 0.19 0.17 0.15 0.12 0.10 0.13 0.13 0.12 0.14 0.16 0.18 0.20 0.18 0.15 0.09 0.07 0.07 0.07
0.07 0.08 0.10 0.10 0.11 0.12 0.13 0.13 0.13 0.15 0.16 0.18 0.21 0.23 0.23 0.23 0.22 0.23 0.22 0.22 0.23 0.23 0.24 0.22 0.24 0.22 0.17 0.14 0.10 0.08 0.06 0.07 0.07 0.08 0.12 0.15 0.18 0.16 0.16 0.13 0.07 0.05 0.05
0.04 0.05 0.06 0.07 0.08 0.09 0.11 0.12 0.14 0.15 0.17 0.20 0.23 0.25 0.27 0.29 0.28 0.28 0.24 0.27 0.28 0.24 0.20 0.18 0.18 0.16 0.15 0.14 0.09 0.09 0.08 0.06 0.05 0.05 0.06 0.08 0.10 0.06 0.06 0.10 0.11 0.06 0.04
0.02 0.03 0.03 0.05 0.07 0.08 0.10 0.13 0.17 0.19 0.22 0.27 0.32 0.36 0.35 0.34 0.35 0.34 0.28 0.28 0.24 0.19 0.17 0.14 0.14 0.15 0.12 0.10 0.09 0.09 0.07 0.05 0.05 0.04 0.03 0.05 0.07 0.07 0.08 0.10 0.11 0.12 0.09
0.02 0.02 0.03 0.04 0.06 0.07 0.08 0.10 0.14 0.16 0.17 0.16 0.17 0.20 0.23 0.27 0.31 0.34 0.36 0.31 0.27 0.25 0.23 0.17 0.15 0.14 0.12 0.10 0.09 0.07 0.05 0.05 0.03 0.01 0.02 0.03 0.04 0.07 0.06 0.05 0.05 0.09 0.10
0.01 0.01 0.02 0.02 0.03 0.04 0.05 0.06 0.08 0.10 0.12 0.14 0.14 0.15 0.15 0.17 0.23 0.30 0.32 0.31 0.33 0.29 0.29 0.26 0.20 0.17 0.14 0.11 0.09 0.07 0.05 0.04 0.03 0.02 0.01 0.01 0.02 0.04 0.04 0.04 0.03 0.05 0.07
0.00 0.00 0.00 0.01 0.02 0.03 0.04 0.06 0.07 0.08 0.08 0.08 0.08 0.08 0.09 0.09 0.14 0.21 0.25 0.28 0.32 0.35 0.37 0.31 0.26 0.22 0.18 0.13 0.11 0.08 0.05 0.05 0.05 0.04 0.02 0.01 0.01 0.02 0.02 0.02 0.04 0.05 0.04
0.00 0.00 0.01 0.02 0.02 0.03 0.05 0.06 0.06 0.05 0.05 0.05 0.06 0.06 0.06 0.06 0.07 0.10 0.14 0.20 0.25 0.25 0.29 0.31 0.31 0.25 0.21 0.15 0.14 0.12 0.09 0.06 0.04 0.04 0.04 0.04 0.03 0.02 0.02 0.02 0.03 0.04 0.04
0.01 0.01 0.01 0.02 0.03 0.03 0.03 0.04 0.05 0.05 0.05 0.04 0.05 0.05 0.06 0.05 0.07 0.08 0.10 0.12 0.16 0.19 0.21 0.21 0.21 0.21 0.20 0.20 0.17 0.15 0.14 0.10 0.06 0.04 0.05 0.05 0.04 0.03 0.02 0.02 0.03 0.02 0.03
MSLP
1005.62 1005.89 1006.37 1007.01 1007.74 1008.46 1009.08 1009.57 1009.91 1010.14 1010.34 1010.57 1010.88 1011.27 1011.73 1012.20 1012.62 1012.97 1013.20 1013.34 1013.43 1013.50 1013.60 1013.75 1013.95 1014.17 1014.37 1014.53 1014.64 1014.69 1014.71 1014.73 1014.78 1014.88 1015.03 1015.22 1015.42 1015.62 1015.79 1015.92 1016.04 1016.15 1016.27
1005.41 1005.77 1006.33 1007.05 1007.84 1008.59 1009.22 1009.68 1010.00 1010.21 1010.39 1010.63 1010.95 1011.38 1011.87 1012.37 1012.83 1013.18 1013.41 1013.55 1013.62 1013.69 1013.78 1013.93 1014.13 1014.36 1014.56 1014.72 1014.82 1014.85 1014.86 1014.87 1014.92 1015.02 1015.19 1015.41 1015.64 1015.86 1016.05 1016.20 1016.32 1016.44 1016.57
1005.13 1005.57 1006.21 1007.02 1007.87 1008.66 1009.31 1009.79 1010.11 1010.32 1010.51 1010.75 1011.09 1011.52 1012.02 1012.51 1012.95 1013.27 1013.48 1013.59 1013.66 1013.73 1013.85 1014.03 1014.26 1014.50 1014.72 1014.88 1014.96 1014.98 1014.96 1014.95 1014.99 1015.10 1015.28 1015.52 1015.78 1016.03 1016.25 1016.43 1016.58 1016.71 1016.86
1004.85 1005.37 1006.10 1006.98 1007.89 1008.73 1009.41 1009.91 1010.25 1010.48 1010.69 1010.95 1011.29 1011.72 1012.19 1012.64 1013.02 1013.29 1013.45 1013.53 1013.59 1013.68 1013.83 1014.06 1014.34 1014.63 1014.88 1015.04 1015.11 1015.10 1015.06 1015.02 1015.04 1015.14 1015.33 1015.59 1015.88 1016.16 1016.41 1016.62 1016.80 1016.97 1017.15
1004.65 1005.25 1006.06 1007.00 1007.96 1008.83 1009.54 1010.07 1010.43 1010.69 1010.92 1011.20 1011.54 1011.95 1012.38 1012.77 1013.07 1013.28 1013.38 1013.42 1013.48 1013.59 1013.79 1014.08 1014.43 1014.77 1015.05 1015.22 1015.29 1015.25 1015.17 1015.10 1015.09 1015.18 1015.37 1015.64 1015.95 1016.26 1016.54 1016.79 1017.00 1017.20 1017.40
1004.60 1005.27 1006.13 1007.11 1008.10 1008.98 1009.70 1010.24 1010.61 1010.90 1011.16 1011.45 1011.80 1012.18 1012.57 1012.90 1013.13 1013.26 1013.30 1013.32 1013.37 1013.51 1013.76 1014.11 1014.52 1014.92 1015.23 1015.43 1015.48 1015.43 1015.31 1015.21 1015.17 1015.24 1015.42 1015.69 1016.01 1016.34 1016.64 1016.91 1017.15 1017.37 1017.61
1004.67 1005.39 1006.30 1007.30 1008.28 1009.15 1009.86 1010.38 1010.76 1011.05 1011.33 1011.64 1012.00 1012.37 1012.72 1013.00 1013.17 1013.24 1013.24 1013.22 1013.27 1013.43 1013.72 1014.13 1014.59 1015.04 1015.39 1015.60 1015.66 1015.59 1015.45 1015.31 1015.25 1015.29 1015.46 1015.72 1016.04 1016.38 1016.70 1016.98 1017.24 1017.48 1017.73
1004.81 1005.57 1006.50 1007.49 1008.45 1009.29 1009.95 1010.44 1010.80 1011.10 1011.38 1011.71 1012.07 1012.45 1012.78 1013.03 1013.17 1013.19 1013.15 1013.12 1013.16 1013.33 1013.65 1014.09 1014.59 1015.08 1015.46 1015.68 1015.75 1015.67 1015.52 1015.37 1015.28 1015.30 1015.45 1015.70 1016.02 1016.36 1016.69 1016.98 1017.25 1017.50 1017.76
1004.94 1005.72 1006.65 1007.62 1008.54 1009.31 1009.92 1010.36 1010.69 1010.97 1011.26 1011.60 1011.97 1012.36 1012.69 1012.94 1013.05 1013.06 1013.00 1012.95 1012.99 1013.16 1013.48 1013.93 1014.45 1014.95 1015.35 1015.60 1015.68 1015.61 1015.46 1015.31 1015.21 1015.23 1015.36 1015.61 1015.92 1016.26 1016.59 1016.89 1017.17 1017.43 1017.70
1005.00 1005.79 1006.70 1007.63 1008.49 1009.20 1009.74 1010.13 1010.41 1010.67 1010.95 1011.29 1011.67 1012.07 1012.42 1012.67 1012.80 1012.81 1012.75 1012.69 1012.71 1012.87 1013.18 1013.62 1014.13 1014.63 1015.04 1015.30 1015.40 1015.36 1015.24 1015.10 1015.01 1015.03 1015.16 1015.40 1015.71 1016.06 1016.40 1016.72 1017.00 1017.28 1017.56
1004.98 1005.75 1006.63 1007.52 1008.32 1008.96 1009.43 1009.76 1009.99 1010.21 1010.47 1010.80 1011.19 1011.60 1011.97 1012.24 1012.39 1012.42 1012.37 1012.31 1012.32 1012.45 1012.73 1013.13 1013.61 1014.10 1014.51 1014.80 1014.93 1014.93 1014.85 1014.74 1014.68 1014.71 1014.85 1015.09 1015.41 1015.76 1016.12 1016.46 1016.77 1017.07 1017.36
1004.93 1005.67 1006.50 1007.33 1008.06 1008.64 1009.05 1009.31 1009.50 1009.67 1009.90 1010.21 1010.59 1011.01 1011.39 1011.69 1011.87 1011.93 1011.89 1011.84 1011.84 1011.93 1012.16 1012.52 1012.96 1013.42 1013.83 1014.13 1014.31 1014.36 1014.33 1014.27 1014.24 1014.29 1014.44 1014.69 1015.01 1015.38 1015.77 1016.14 1016.48 1016.81 1017.12
1004.94 1005.62 1006.40 1007.16 1007.83 1008.33 1008.68 1008.89 1009.02 1009.15 1009.33 1009.61 1009.97 1010.37 1010.76 1011.08 1011.29 1011.39 1011.38 1011.34 1011.32 1011.39 1011.57 1011.87 1012.25 1012.68 1013.08 1013.40 1013.62 1013.73 1013.76 1013.75 1013.76 1013.83 1013.98 1014.23 1014.56 1014.94 1015.35 1015.76 1016.15 1016.52 1016.86
1005.11 1005.73 1006.42 1007.11 1007.69 1008.13 1008.42 1008.57 1008.65 1008.73 1008.86 1009.09 1009.41 1009.79 1010.17 1010.51 1010.75 1010.88 1010.91 1010.89 1010.87 1010.90 1011.02 1011.25 1011.58 1011.96 1012.34 1012.68 1012.93 1013.10 1013.19 1013.24 1013.28 1013.37 1013.52 1013.76 1014.08 1014.47 1014.89 1015.33 1015.77 1016.19 1016.58
1005.53 1006.06 1006.65 1007.24 1007.74 1008.11 1008.33 1008.44 1008.47 1008.49 1008.56 1008.73 1009.00 1009.34 1009.71 1010.05 1010.32 1010.49 1010.56 1010.55 1010.52 1010.52 1010.59 1010.75 1011.00 1011.33 1011.68 1012.02 1012.31 1012.53 1012.68 1012.78 1012.85 1012.94 1013.09 1013.30 1013.60 1013.97 1014.40 1014.86 1015.34 1015.80 1016.23
1006.22 1006.64 1007.11 1007.58 1007.99 1008.28 1008.45 1008.51 1008.49 1008.47 1008.48 1008.58 1008.79 1009.08 1009.42 1009.76 1010.05 1010.25 1010.35 1010.36 1010.33 1010.29 1010.29 1010.37 1010.55 1010.80 1011.12 1011.45 1011.76 1012.02 1012.22 1012.36 1012.46 1012.55 1012.67 1012.85 1013.11 1013.45 1013.86 1014.33 1014.83 1015.33 1015.81
1007.12 1007.40 1007.74 1008.09 1008.40 1008.62 1008.74 1008.75 1008.70 1008.62 1008.59 1008.62 1008.76 1009.00 1009.30 1009.62 1009.92 1010.14 1010.27 1010.29 1010.24 1010.16 1010.09 1010.08 1010.16 1010.34 1010.59 1010.90 1011.22 1011.52 1011.76 1011.94 1012.07 1012.17 1012.27 1012.41 1012.61 1012.91 1013.29 1013.75 1014.25 1014.77 1015.28
1008.09 1008.24 1008.45 1008.68 1008.89 1009.04 1009.11 1009.10 1009.02 1008.91 1008.83 1008.81 1008.88 1009.05 1009.30 1009.60 1009.89 1010.11 1010.25 1010.27 1010.20 1010.06 1009.92 1009.81 1009.78 1009.86 1010.04 1010.31 1010.63 1010.95 1011.24 1011.47 1011.63 1011.74 1011.83 1011.94 1012.10 1012.35 1012.68 1013.11 1013.60 1014.13 1014.66
1009.01 1009.03 1009.11 1009.23 1009.36 1009.46 1009.50 1009.47 1009.38 1009.26 1009.13 1009.06 1009.07 1009.17 1009.36 1009.61 1009.87 1010.08 1010.20 1010.21 1010.10 1009.91 1009.67 1009.46 1009.32 1009.29 1009.39 1009.61 1009.92 1010.26 1010.60 1010.88 1011.09 1011.24 1011.34 1011.44 1011.57 1011.77 1012.06 1012.45 1012.92 1013.44 1013.97
1009.73 1009.65 1009.63 1009.67 1009.73 1009.80 1009.83 1009.81 1009.72 1009.59 1009.44 1009.31 1009.25 1009.28 1009.40 1009.59 1009.79 1009.97 1010.06 1010.03 1009.88 1009.62 1009.31 1008.99 1008.74 1008.60 1008.62 1008.79 1009.08 1009.44 1009.82 1010.17 1010.45 1010.66 1010.80 1010.90 1011.02 1011.19 1011.45 1011.80 1012.23 1012.74 1013.27
1010.19 1010.05 1009.96 1009.94 1009.97 1010.03 1010.07 1010.07 1010.00 1009.87 1009.69 1009.52 1009.39 1009.34 1009.37 1009.47 1009.61 1009.73 1009.78 1009.71 1009.51 1009.20 1008.80 1008.40 1008.05 1007.83 1007.77 1007.88 1008.15 1008.53 1008.96 1009.38 1009.74 1010.02 1010.21 1010.36 1010.49 1010.65 1010.88 1011.20 1011.60 1012.08 1012.60
1010.38 1010.21 1010.09 1010.05 1010.08 1010.15 1010.22 1010.24 1010.20 1010.07 1009.88 1009.66 1009.46 1009.32 1009.25 1009.25 1009.30 1009.36 1009.35 1009.25 1009.01 1008.66 1008.22 1007.75 1007.33 1007.04 1006.92 1006.98 1007.23 1007.62 1008.09 1008.57 1009.01 1009.37 1009.64 1009.84 1010.01 1010.18 1010.39 1010.68 1011.05 1011.50 1012.00
1010.36 1010.20 1010.09 1010.06 1010.11 1010.20 1010.30 1010.36 1010.33 1010.21 1010.00 1009.74 1009.46 1009.22 1009.04 1008.94 1008.90 1008.89 1008.83 1008.70 1008.45 1008.09 1007.64 1007.15 1006.71 1006.37 1006.20 1006.24 1006.46 1006.85 1007.34 1007.87 1008.37 1008.80 1009.14 1009.40 1009.60 1009.79 1010.00 1010.27 1010.62 1011.04 1011.51
1010.24 1010.11 1010.03 1010.03 1010.10 1010.22 1010.35 1010.43 1010.43 1010.31 1010.08 1009.76 1009.41 1009.08 1008.80 1008.60 1008.47 1008.39 1008.30 1008.16 1007.93 1007.60 1007.18 1006.72 1006.28 1005.94 1005.75 1005.76 1005.96 1006.33 1006.81 1007.35 1007.88 1008.36 1008.74 1009.05 1009.28 1009.49 1009.70 1009.96 1010.28 1010.67 1011.12
1010.12 1010.04 1010.01 1010.03 1010.12 1010.26 1010.40 1010.49 1010.49 1010.37 1010.12 1009.76 1009.35 1008.93 1008.56 1008.27 1008.07 1007.93 1007.83 1007.71 1007.52 1007.26 1006.91 1006.52 1006.13 1005.82 1005.63 1005.62 1005.78 1006.11 1006.56 1007.08 1007.60 1008.07 1008.48 1008.80 1009.06 1009.28 1009.49 1009.73 1010.03 1010.39 1010.81
1010.09 1010.06 1010.05 1010.09 1010.18 1010.31 1010.45 1010.53 1010.53 1010.40 1010.13 1009.74 1009.27 1008.79 1008.35 1007.99 1007.73 1007.57 1007.47 1007.38 1007.27 1007.09 1006.85 1006.56 1006.26 1006.00 1005.83 1005.80 1005.92 1006.19 1006.58 1007.03 1007.50 1007.94 1008.33 1008.65 1008.91 1009.13 1009.34 1009.57 1009.84 1010.17 1010.56
Thickness
5867 5860 5850 5845 5840 5835 5830 5826 5822 5817 5813 5809 5806 5802 5799 5796 5793 5790 5787 5785 5782 5780 5777 5775 5772 5771 5769 5767 5765 5764 5762 5761 5760 5759 5758 5756 5755 5754 5753 5752 5751 5749 5748
5869 5859 5850 5844 5838 5833 5829 5825 5820 5816 5811 5808 5804 5800 5797 5794 5791 5788 5786 5783 5781 5779 5776 5774 5772 5770 5768 5766 5764 5762 5761 5760 5759 5758 5757 5755 5754 5753 5752 5752 5751 5748 5747
5867 5856 5848 5842 5837 5832 5827 5823 5818 5814 5810 5806 5802 5799 5795 5792 5789 5787 5784 5782 5780 5777 5775 5772 5770 5768 5767 5765 5763 5761 5760 5759 5758 5758 5757 5756 5753 5751 5751 5750 5749 5747 5746
5864 5854 5847 5840 5835 5830 5825 5820 5816 5812 5808 5804 5800 5797 5794 5791 5788 5785 5783 5780 5778 5775 5773 5771 5769 5767 5765 5763 5761 5760 5759 5759 5758 5757 5757 5757 5754 5751 5750 5748 5747 5746 5745
5861 5853 5844 5837 5832 5827 5822 5818 5813 5809 5805 5802 5799 5795 5792 5789 5786 5784 5781 5778 5776 5774 5771 5769 5767 5765 5763 5762 5760 5759 5758 5758 5757 5757 5759 5757 5754 5750 5749 5747 5746 5745 5744
5860 5851 5840 5834 5829 5824 5819 5815 5810 5806 5803 5799 5796 5793 5790 5787 5785 5782 5779 5777 5774 5772 5769 5767 5765 5763 5761 5760 5759 5757 5756 5757 5757 5759 5759 5757 5753 5750 5748 5747 5745 5744 5743
5859 5849 5838 5831 5826 5821 5816 5812 5808 5804 5800 5797 5794 5791 5788 5785 5783 5780 5778 5775 5772 5770 5768 5765 5763 5761 5760 5758 5757 5756 5755 5755 5756 5759 5759 5757 5753 5750 5748 5746 5745 5743 5742
5859 5847 5835 5828 5823 5818 5814 5809 5805 5802 5798 5795 5792 5789 5786 5783 5780 5778 5775 5773 5771 5768 5766 5764 5761 5760 5758 5756 5755 5754 5754 5754 5757 5759 5759 5757 5753 5750 5748 5746 5744 5743 5742
5859 5845 5833 5826 5820 5815 5811 5807 5803 5800 5796 5792 5789 5786 5783 5780 5777 5775 5773 5770 5768 5766 5764 5762 5760 5758 5756 5754 5753 5752 5752 5752 5753 5757 5759 5756 5753 5751 5748 5745 5744 5743 5742
5854 5844 5833 5827 5820 5814 5808 5804 5800 5797 5793 5790 5786 5783 5780 5777 5774 5772 5770 5768 5766 5763 5761 5760 5758 5756 5754 5753 5751 5750 5749 5749 5751 5755 5759 5757 5754 5751 5748 5746 5744 5742 5741
5846 5840 5834 5827 5820 5815 5810 5804 5798 5793 5790 5787 5783 5780 5777 5775 5773 5771 5769 5767 5764 5761 5759 5758 5756 5754 5752 5751 5750 5749 5747 5748 5751 5754 5758 5757 5753 5751 5749 5746 5744 5742 5741
5837 5836 5833 5829 5821 5817 5814 5804 5797 5793 5789 5785 5783 5779 5776 5775 5774 5773 5771 5767 5763 5760 5758 5756 5755 5753 5751 5750 5750 5748 5747 5748 5750 5754 5756 5755 5753 5750 5749 5747 5744 5742 5741
5836 5833 5830 5827 5821 5816 5812 5805 5799 5796 5792 5785 5782 5779 5775 5774 5773 5772 5771 5766 5760 5758 5756 5755 5753 5751 5751 5751 5751 5749 5748 5750 5751 5754 5755 5753 5751 5750 5748 5747 5744 5742 5741
5829 5826 5824 5822 5816 5812 5808 5804 5799 5795 5791 5787 5783 5778 5774 5770 5769 5769 5766 5763 5759 5756 5755 5755 5753 5751 5751 5751 5750 5749 5749 5749 5751 5752 5752 5752 5751 5749 5748 5747 5744 5742 5741
5821 5819 5818 5815 5809 5804 5800 5796 5795 5791 5788 5784 5780 5775 5771 5767 5763 5761 5760 5758 5756 5755 5754 5753 5751 5750 5749 5749 5748 5748 5749 5750 5751 5750 5750 5749 5748 5747 5746 5745 5743 5742 5740
5811 5812 5811 5806 5802 5797 5791 5786 5785 5784 5781 5778 5774 5771 5767 5764 5760 5756 5753 5751 5750 5750 5750 5750 5748 5747 5746 5745 5745 5747 5748 5749 5749 5748 5748 5746 5744 5744 5744 5743 5742 5741 5740
5803 5802 5800 5798 5794 5788 5783 5779 5776 5775 5773 5769 5765 5762 5759 5757 5753 5750 5746 5745 5745 5745 5745 5744 5744 5744 5742 5742 5742 5744 5746 5747 5747 5747 5746 5743 5742 5742 5742 5741 5741 5741 5740
5791 5789 5787 5787 5783 5778 5773 5770 5766 5764 5761 5758 5755 5751 5750 5748 5745 5742 5739 5738 5739 5739 5738 5737 5737 5737 5737 5738 5739 5741 5744 5745 5745 5746 5745 5743 5742 5742 5741 5740 5740 5740 5740
5779 5777 5774 5773 5770 5767 5764 5762 5759 5756 5751 5748 5746 5743 5741 5738 5737 5733 5732 5731 5732 5732 5732 5732 5731 5731 5730 5732 5735 5738 5741 5743 5744 5745 5745 5744 5743 5742 5742 5741 5740 5740 5739
5769 5766 5763 5761 5758 5757 5755 5753 5750 5746 5743 5741 5738 5735 5733 5730 5728 5726 5724 5723 5725 5725 5725 5726 5726 5727 5727 5728 5731 5735 5739 5741 5743 5744 5744 5744 5743 5743 5743 5742 5741 5739 5738
5758 5755 5752 5749 5747 5745 5742 5739 5736 5734 5733 5732 5731 5729 5725 5723 5722 5718 5715 5716 5718 5718 5718 5720 5721 5720 5721 5724 5723 5725 5731 5737 5739 5742 5744 5744 5744 5744 5745 5744 5742 5740 5739
5747 5745 5743 5739 5736 5735 5732 5730 5728 5725 5725 5724 5723 5721 5719 5716 5715 5713 5710 5710 5710 5711 5712 5714 5715 5714 5716 5721 5718 5716 5716 5722 5731 5741 5741 5741 5743 5745 5744 5744 5742 5741 5740
5739 5737 5734 5730 5727 5724 5722 5721 5719 5716 5715 5714 5713 5712 5712 5710 5708 5706 5705 5704 5704 5705 5705 5707 5709 5709 5709 5715 5717 5715 5712 5713 5722 5732 5737 5740 5741 5742 5742 5744 5743 5741 5740
5731 5730 5726 5722 5718 5714 5712 5709 5705 5702 5700 5701 5702 5703 5703 5703 5702 5701 5700 5699 5699 5699 5699 5700 5703 5705 5705 5704 5710 5716 5718 5719 5716 5716 5726 5734 5737 5737 5739 5741 5742 5741 5740
5724 5721 5717 5713 5708 5705 5701 5698 5695 5692 5691 5691 5691 5692 5693 5694 5694 5694 5694 5693 5692 5692 5694 5694 5696 5698 5699 5699 5702 5706 5711 5715 5717 5713 5712 5721 5727 5732 5735 5737 5738 5739 5739
5715 5711 5706 5701 5697 5694 5691 5687 5684 5681 5679 5679 5679 5680 5682 5684 5685 5686 5686 5685 5685 5685 5686 5687 5688 5689 5691 5694 5696 5699 5702 5704 5707 5710 5710 5713 5715 5724 5730 5733 5735 5736 5736